Simultaneous Nadir Overpasses (SNOs) Predictions

Prediction of SNOs between GOES-14 and NOAA-20 Satellite Orbit:

Table of predicted SNOs for the next 14.0 days since TLE Epoch: 7/10/2021
Index Date Time (GOES-14) GOES-14 Lat,Lon NOAA-20 Lat,Lon Distance(km) Time Diff (sec)
1 07/10/2021 08:08:17 -0.15,-104.09 -0.91,-100.72 384.08 80
2 07/11/2021 20:27:34 0.18,-104.34 -0.22,-106.04 194.61 80
3 07/12/2021 20:11:30 0.17,-104.34 0.80,-101.51 322.22 80
4 07/14/2021 08:30:37 -0.20,-104.09 0.41,-106.77 306.15 80
5 07/15/2021 08:14:33 -0.19,-104.09 -0.61,-102.25 210.43 80
6 07/16/2021 20:33:50 0.22,-104.33 -0.52,-107.56 368.71 80
7 07/17/2021 20:17:46 0.20,-104.33 0.50,-103.03 148.17 80
8 07/19/2021 08:36:53 -0.24,-104.09 0.71,-108.30 479.68 80
9 07/20/2021 08:20:48 -0.23,-104.09 -0.31,-103.77 36.43 80
10 07/22/2021 20:21:21 0.25,-104.32 0.21,-104.56 27.64 80
11 07/23/2021 20:05:16 0.23,-104.31 1.17,-100.02 489.01 80
